Weather History for Three Rivers, MI

Change the Weather History Date:

Monday, June 30, 2014

  Actual Average Record
Temperature  
Mean Temperature 76 °F -  
Max Temperature 84 °F 82 °F 96 °F (1953)
Min Temperature 68 °F 60 °F 46 °F (2010)
Cooling Degree Days 11    
Growing Degree Days 26 (Base 50)    
Moisture  
Dew Point 71 °F    
Average Humidity 83    
Maximum Humidity 100    
Minimum Humidity 66    
Precipitation  
Precipitation 0.00 in - - ()
Sea Level Pressure  
Sea Level Pressure 29.87 in    
Wind  
Wind Speed 8 mph (SSW)    
Max Wind Speed 16 mph    
Max Gust Speed 32 mph    
Visibility 10 miles    
Events Rain    
Averages and records for this station are not official NWS values.
T = Trace of Precipitation, MM = Missing Value Source: NWS Daily Summary

Daily Weather History Graph

Daily Weather History Graph

Search for Another Location

Airport:

Trip Planner

Search our weather history database for the weather conditions in past years. The results will help you decide how hot, cold, wet, or windy it might be!

Date:

Astronomy

Jun. 30, 2014 Rise Set
Actual Time 6:10 AM EDT 9:21 PM EDT
Civil Twilight 5:35 AM EDT 9:55 PM EDT
Nautical Twilight 4:51 AM EDT 10:39 PM EDT
Astronomical Twilight 3:58 AM EDT 11:32 PM EDT
Moon 9:25 AM EDT 11:10 PM EDT
Length of Visible Light 16h 20m
Length of Day
15h 11m
Waxing Crescent, 10% of the Moon is Illuminated
Jun 30
Waxing Crescent
Jul 5
First Quarter
Jul 12
Full
Jul 18
Last Quarter
Jul 26
New

Hourly Weather History & Observations

Time (EDT) Temp. Heat Index Dew Point Humidity Pressure Visibility Wind Dir Wind Speed Gust Speed Precip Events Conditions
12:14 AM 76.1 °F - 72.1 °F 87% 29.93 in 10.0 mi South 8.1 mph - N/A   Clear
12:35 AM 75.2 °F - 71.8 °F 89% 29.93 in 10.0 mi South 9.2 mph - N/A   Clear
12:55 AM 75.0 °F - 71.8 °F 90% 29.92 in 7.0 mi SSW 6.9 mph - N/A   Clear
1:14 AM 74.7 °F - 71.6 °F 90% 29.94 in 10.0 mi SSW 6.9 mph - N/A   Clear
1:35 AM 74.7 °F - 71.2 °F 89% 29.94 in 10.0 mi SSW 6.9 mph - N/A   Clear
1:55 AM 74.5 °F - 70.9 °F 88% 29.93 in 10.0 mi SSW 8.1 mph - N/A   Clear
2:15 AM 74.3 °F - 71.1 °F 90% 29.94 in 10.0 mi SSW 6.9 mph - N/A   Clear
2:35 AM 74.3 °F - 70.9 °F 89% 29.95 in 10.0 mi SSW 8.1 mph - N/A   Clear
2:54 AM 74.3 °F - 70.9 °F 89% 29.96 in 10.0 mi SSW 6.9 mph - N/A   Scattered Clouds
3:15 AM 73.9 °F - 70.7 °F 90% 29.97 in 10.0 mi SW 4.6 mph - N/A   Clear
3:35 AM 73.9 °F - 70.7 °F 90% 29.98 in 10.0 mi WSW 5.8 mph - N/A   Clear
3:54 AM 74.3 °F - 70.7 °F 88% 29.99 in 10.0 mi WSW 4.6 mph - N/A   Mostly Cloudy
4:15 AM 74.5 °F - 70.7 °F 88% 29.99 in 10.0 mi WSW 5.8 mph - N/A   Overcast
4:35 AM 74.5 °F - 70.7 °F 88% 29.98 in 10.0 mi SW 3.5 mph - N/A   Overcast
4:54 AM 74.3 °F - 70.7 °F 88% 29.98 in 10.0 mi SW 3.5 mph - N/A   Overcast
5:15 AM 73.6 °F - 70.7 °F 91% 29.97 in 10.0 mi South 4.6 mph - N/A   Overcast
5:35 AM 73.4 °F - 70.7 °F 91% 29.96 in 10.0 mi South 5.8 mph - N/A   Scattered Clouds
5:54 AM 72.9 °F - 70.7 °F 93% 29.95 in 10.0 mi South 6.9 mph - N/A   Clear
6:15 AM 72.7 °F - 70.7 °F 93% 29.95 in 10.0 mi SW 8.1 mph - N/A   Clear
6:34 AM 72.5 °F - 70.3 °F 93% 29.95 in 10.0 mi SSW 9.2 mph - N/A   Scattered Clouds
6:55 AM 72.5 °F - 70.2 °F 92% 29.91 in 10.0 mi South 11.5 mph - N/A Rain Light Rain
7:15 AM 71.8 °F - 70.2 °F 95% 29.84 in 7.0 mi South 15.0 mph - N/A   Scattered Clouds
7:34 AM 71.8 °F - 70.0 °F 94% 29.84 in 10.0 mi South 8.1 mph - N/A   Clear
7:55 AM 72.1 °F - 70.2 °F 93% 29.90 in 7.0 mi SW 8.1 mph 17.3 mph N/A   Scattered Clouds
8:15 AM 73.0 °F - 70.3 °F 91% 29.89 in 10.0 mi SSW 5.8 mph - N/A   Mostly Cloudy
8:34 AM 73.0 °F - 70.2 °F 91% 29.88 in 10.0 mi South 8.1 mph - N/A   Overcast
8:55 AM 73.0 °F - 70.2 °F 91% 29.87 in 10.0 mi South 9.2 mph - N/A   Mostly Cloudy
9:14 AM 73.4 °F - 70.7 °F 91% 29.87 in 10.0 mi South 9.2 mph - N/A   Scattered Clouds
9:35 AM 73.9 °F - 70.7 °F 90% 29.86 in 10.0 mi South 8.1 mph - N/A   Scattered Clouds
9:55 AM 74.5 °F - 70.7 °F 88% 29.86 in 10.0 mi South 9.2 mph - N/A   Clear
10:14 AM 75.6 °F - 71.2 °F 86% 29.86 in 10.0 mi South 10.4 mph - N/A   Scattered Clouds
10:35 AM 75.4 °F - 70.9 °F 86% 29.86 in 10.0 mi South 12.7 mph - N/A   Mostly Cloudy
10:55 AM 76.1 °F - 70.9 °F 84% 29.87 in 10.0 mi SSW 13.8 mph 17.3 mph N/A   Overcast
11:15 AM 76.1 °F - 71.1 °F 84% 29.87 in 10.0 mi SSW 9.2 mph - N/A   Overcast
11:35 AM 77.0 °F - 71.2 °F 82% 29.89 in 10.0 mi SSW 9.2 mph - N/A   Overcast
11:55 AM 77.2 °F - 71.6 °F 83% 29.89 in 10.0 mi SSW 12.7 mph - N/A   Overcast
12:15 PM 77.2 °F - 71.2 °F 82% 29.89 in 10.0 mi SW 13.8 mph 19.6 mph N/A   Overcast
12:16 PM 77.0 °F - 71.2 °F 82% 29.89 in 10.0 mi SW 11.5 mph 19.6 mph N/A   Overcast
1:00 PM 78.8 °F - 71.6 °F 78% 29.87 in 10.0 mi SSW 9.2 mph - N/A   Mostly Cloudy
1:18 PM 80.6 °F 84.6 °F 71.6 °F 74% 29.85 in 10.0 mi South 11.5 mph - N/A   Scattered Clouds
1:39 PM 80.6 °F 84.6 °F 71.6 °F 74% 29.86 in 10.0 mi South 10.4 mph 17.3 mph N/A   Scattered Clouds
1:58 PM 80.6 °F 84.6 °F 71.6 °F 74% 29.86 in 10.0 mi South 8.1 mph - N/A   Scattered Clouds
2:19 PM 80.6 °F 84.6 °F 71.6 °F 74% 29.84 in 10.0 mi South 12.7 mph - N/A   Scattered Clouds
2:39 PM 80.6 °F 84.6 °F 71.6 °F 74% 29.85 in 10.0 mi SSW 4.6 mph - N/A   Clear
2:59 PM 80.6 °F 85.4 °F 73.4 °F 79% 29.84 in 10.0 mi SSE 5.8 mph - N/A   Clear
3:23 PM 82.4 °F 88.2 °F 73.4 °F 74% 29.85 in 10.0 mi South 10.4 mph - N/A   Clear
3:38 PM 82.4 °F 88.2 °F 73.4 °F 74% 29.84 in 10.0 mi South 9.2 mph - N/A   Scattered Clouds
3:59 PM 82.4 °F 88.2 °F 73.4 °F 74% 29.83 in 10.0 mi SSW 8.1 mph - N/A   Scattered Clouds
4:19 PM 84.2 °F 89.6 °F 71.6 °F 66% 29.81 in 10.0 mi South 10.4 mph - N/A   Scattered Clouds
4:38 PM 84.2 °F 89.6 °F 71.6 °F 66% 29.80 in 10.0 mi South 10.4 mph - N/A   Scattered Clouds
4:58 PM 84.2 °F 89.6 °F 71.6 °F 66% 29.80 in 10.0 mi SSW 13.8 mph 17.3 mph N/A   Clear
5:18 PM 84.2 °F 89.6 °F 71.6 °F 66% 29.80 in 10.0 mi South 11.5 mph 16.1 mph N/A   Scattered Clouds
5:41 PM 82.4 °F 87.2 °F 71.6 °F 70% 29.82 in 10.0 mi South 11.5 mph - N/A   Scattered Clouds
5:58 PM 84.2 °F 89.6 °F 71.6 °F 66% 29.82 in 10.0 mi South 9.2 mph - N/A   Clear
6:18 PM 84.2 °F 90.9 °F 73.4 °F 70% 29.82 in 10.0 mi SSW 11.5 mph - N/A   Clear
6:38 PM 84.2 °F 90.9 °F 73.4 °F 70% 29.79 in 10.0 mi South 8.1 mph - N/A   Clear
6:58 PM 82.4 °F 88.2 °F 73.4 °F 74% 29.78 in 10.0 mi South 9.2 mph - N/A   Scattered Clouds
7:18 PM 82.4 °F 88.2 °F 73.4 °F 74% 29.79 in 10.0 mi SW 9.2 mph - N/A   Mostly Cloudy
7:38 PM 82.4 °F 88.2 °F 73.4 °F 74% 29.80 in 10.0 mi SW 6.9 mph - N/A   Overcast
8:18 PM 80.6 °F 84.6 °F 71.6 °F 74% 29.81 in 10.0 mi SSW 11.5 mph - N/A   Mostly Cloudy
8:38 PM 80.6 °F 83.9 °F 69.8 °F 70% 29.81 in 10.0 mi SSW 10.4 mph - N/A   Mostly Cloudy
9:18 PM 78.8 °F - 69.8 °F 74% 29.81 in 10.0 mi South 6.9 mph - N/A   Scattered Clouds
9:38 PM 78.8 °F - 69.8 °F 74% 29.81 in 10.0 mi SSW 10.4 mph - N/A   Scattered Clouds
10:18 PM 78.8 °F - 71.6 °F 78% 29.82 in 10.0 mi SSW 6.9 mph - N/A   Mostly Cloudy
10:38 PM 73.4 °F - 64.4 °F 73% 29.87 in 10.0 mi West 16.1 mph 32.2 mph N/A Rain Light Rain
10:58 PM 68.0 °F - 66.2 °F 94% 29.79 in 10.0 mi North 3.5 mph - N/A Rain Light Rain
11:18 PM 69.8 °F - 66.2 °F 88% 29.73 in 10.0 mi ENE 10.4 mph - N/A Rain Light Rain
11:38 PM 68.0 °F - 68.0 °F 100% 29.67 in 10.0 mi East 12.7 mph - N/A Rain Light Rain